Tracking 30258 objects as of 19-Feb-2025
HD Live streaming from Space Station
objects crossing your sky now

STARLINK-32224

Track STARLINK-32224 now!
10-day predictions
STARLINK-32224 is classified as:


NORAD ID: 60941
Int'l Code: 2024-155T
Perigee: 481.6 km
Apogee: 483.2 km
Inclination: 53.2 °
Period: 94.1 minutes
Semi major axis: 6853 km
RCS: Unknown
Launch date: August 31, 2024
Source: United States (US)
Launch site: AIR FORCE WESTERN TEST RANGE (AFWTR)
Your satellite tracking list
Your tracking list is empty




NASA's NSSDC Master Catalog

Two Line Element Set (TLE):
1 60941U 24155T   25050.44544800  .00000035  00000-0  13294-4 0  9999
2 60941  53.1593 109.8543 0001141  71.6257 288.4868 15.30194379 27671
Source of the keplerian elements: AFSPC